Orbital elements:
2002 CZ248 = 2006 CK69
Epoch 2011 Aug. 27.0 TT = JDT 2455800.5 MPC
M 28.42140 (2000.0) P Q
n 0.00254883 Peri. 310.69585 +0.06934797 -0.99532764
a 53.0772409 Node 135.18784 +0.94161721 +0.04306624
e 0.3906649 Incl. 5.47010 +0.32946606 +0.08641873
P 387 H 8.1 G 0.15 U 2
Orbital elements:
2006 CJ69
Epoch 2011 Aug. 27.0 TT = JDT 2455800.5 MPC
M 331.70193 (2000.0) P Q
n 0.00360538 Peri. 59.17618 -0.95425133 +0.18581575
a 42.1213474 Node 130.43064 -0.23344109 -0.95254472
e 0.2266807 Incl. 17.92380 +0.18684124 -0.24110386
P 273 H 7.7 G 0.15 U 3